Location: Newark
(39.6172°N, 96.8533°W)
Time: 11:36:05
(UTC+00:00)

Envisat - Pass Details

Date: 29 January 2020
Orbit: 764 x 766 km, 98.1° (Epoch: 23 February)

Event Time Altitude Azimuth Distance (km) Brightness Sun altitude
Rises 12:05:40 0° 28° (NNE) 3,238 6.5 -17.9°
Reaches altitude 10° 12:08:31 10° 44° (NE) 2,307 5.9 -17.4°
Maximum altitude 12:12:22 21° 93° (E) 1,653 5.7 -16.7°
Drops below altitude 10° 12:16:10 10° 143° (SE) 2,294 6.2 -15.9°
Sets 12:18:59 0° 158° (SSE) 3,214 6.7 -15.4°
